Temp
17 18 18 18 19 19 20 20 20 21 21 21 22 22 23 23 23 23 30 31 30 29 28 31 31 32 33 36 34 33 25 30 32 30 28 30 31 31 33 34 34 33 34 31 28
17 17 18 18 19 19 20 21 21 22 22 22 22 22 23 23 22 29 31 30 29 29 29 32 34 34 36 36 35 34 29 31 33 32 31 31 31 28 31 33 33 33 32 30 30
17 17 17 18 19 20 20 20 21 22 22 23 22 23 23 23 28 34 32 30 29 29 32 33 35 36 36 37 35 35 32 34 33 33 33 32 32 33 32 32 33 32 31 31 30
17 17 18 19 19 19 19 20 21 22 23 23 23 23 23 20 33 31 30 30 29 28 32 34 35 35 36 36 36 33 34 34 33 32 32 31 32 31 31 30 34 33 32 32 32
17 17 18 19 19 19 19 20 21 22 23 23 23 23 21 29 33 29 29 29 28 29 33 35 35 36 36 37 36 34 34 33 33 33 32 31 30 29 31 33 34 34 33 32 33
16 16 18 19 19 19 20 21 22 22 23 23 23 23 24 32 32 29 29 28 31 32 34 35 36 37 36 36 36 35 34 34 33 33 33 31 31 32 31 31 33 33 33 33 33
16 17 18 19 19 20 20 22 22 23 23 23 23 21 29 34 31 31 31 31 32 33 36 35 36 36 37 36 36 35 34 34 34 34 33 32 31 31 28 31 31 33 33 33 33
16 17 18 19 20 20 21 22 22 23 23 23 23 22 31 32 32 31 32 32 33 33 34 35 35 36 36 37 36 34 35 34 34 33 33 32 29 32 32 31 31 32 33 33 33
16 17 18 19 20 20 21 21 22 22 23 23 22 27 33 29 32 33 33 33 33 34 33 33 34 35 37 35 36 36 35 34 34 33 33 32 30 33 32 32 32 32 32 32 33
16 17 18 19 20 21 21 20 20 21 21 21 25 29 33 34 33 33 33 34 34 34 34 34 35 35 36 36 35 34 35 35 35 34 33 33 33 34 33 33 33 31 31 32 33
16 17 18 19 20 21 19 20 25 27 27 33 35 34 35 36 34 33 33 34 35 34 33 35 34 34 36 37 37 36 35 35 36 35 34 34 34 34 35 33 33 33 30 32 33
16 16 18 19 20 21 19 29 32 31 32 33 34 34 35 34 33 35 33 34 34 33 34 35 34 36 37 37 36 35 35 35 36 35 34 34 34 35 35 35 34 33 34 33 33
16 15 17 18 20 18 24 29 29 30 32 36 35 35 34 34 35 35 35 35 35 34 35 35 36 37 36 36 35 35 35 36 35 36 36 35 34 35 36 36 35 35 34 34 32
15 14 15 18 16 27 27 28 28 29 32 34 33 34 35 35 34 37 35 35 35 34 35 36 37 36 35 35 36 35 37 36 34 35 34 35 34 30 36 36 35 35 35 35 33
15 13 13 16 17 28 29 28 29 30 32 34 34 34 36 34 37 35 35 35 34 35 35 35 35 35 35 35 36 35 37 35 35 35 36 37 35 36 36 36 36 36 36 35 35
15 14 15 16 17 26 27 28 29 31 33 34 35 34 34 35 36 36 35 36 36 35 36 35 37 36 36 36 36 37 36 35 35 36 35 37 37 37 37 37 37 38 38 36 36
17 18 18 21 29 26 27 30 31 33 36 35 35 35 34 35 35 34 34 33 34 32 34 35 35 36 36 35 37 36 35 34 34 35 35 38 36 37 38 39 39 38 38 38 37
19 19 20 22 24 26 28 31 31 35 35 36 35 36 35 36 35 35 34 34 35 36 36 36 36 36 37 36 36 35 36 35 33 35 36 37 35 37 39 39 39 39 38 38 37
20 22 25 25 25 26 30 32 34 35 35 35 36 35 35 36 36 36 35 36 36 36 34 35 35 37 37 37 37 36 35 37 36 37 36 37 38 39 39 38 39 39 38 37 37
22 29 28 26 26 28 31 30 34 33 33 34 34 36 35 36 36 35 36 37 36 37 38 36 35 37 37 37 37 36 38 36 36 33 33 36 36 36 37 37 38 38 38 37 37
23 32 28 27 27 30 31 34 33 33 33 33 34 34 35 36 36 36 36 37 37 37 37 37 36 36 37 36 36 36 35 36 37 36 34 34 36 38 37 37 37 38 38 37 36
29 32 28 28 30 33 33 33 20 33 33 33 33 33 34 35 35 35 35 37 37 37 36 37 36 35 36 38 38 38 37 37 35 34 35 35 36 39 39 38 38 38 37 37 36
31 31 29 30 31 33 33 32 31 32 33 32 32 33 34 33 33 34 35 37 35 35 35 36 36 34 35 37 38 37 37 37 38 38 35 34 36 39 39 38 38 37 37 35 35
29 31 31 31 31 31 31 31 31 31 30 31 31 32 31 32 33 33 34 35 34 34 27 32 35 35 35 36 33 34 36 37 37 36 35 36 36 38 38 37 38 37 36 35 34
29 29 27 31 30 29 29 30 30 30 31 30 30 30 30 30 31 32 33 34 35 30 32 34 32 34 35 36 36 34 33 34 36 37 35 36 37 37 37 38 39 39 37 35 34
26 26 28 28 28 28 23 30 28 29 28 29 30 29 30 28 29 29 31 31 31 33 33 33 32 33 33 35 35 35 36 36 37 36 36 35 35 38 38 38 38 38 37 35 34
22 23 25 21 28 29 29 27 27 26 27 28 27 27 27 28 27 28 29 29 29 29 30 30 30 31 31 33 34 33 35 35 36 37 37 35 36 37 37 38 38 38 37 35 35
Height
804 802 800 798 796 795 793 791 790 789 787 787 786 785 784 782 781 781 776 772 773 774 775 774 774 770 765 756 761 761 799 787 779 785 791 774 773 769 763 761 760 763 759 771 789
805 803 800 798 796 794 793 791 789 788 787 786 786 785 784 782 781 775 770 770 772 773 774 771 767 764 756 753 755 759 786 779 763 766 773 771 774 781 773 763 766 769 770 780 786
805 802 800 798 796 794 792 790 788 787 786 785 785 784 784 782 778 760 763 768 771 772 771 768 763 759 755 749 754 756 774 761 763 762 761 770 770 765 770 775 764 774 776 781 786
805 803 800 797 795 793 791 789 787 786 785 785 784 784 783 785 778 760 763 767 770 772 771 766 761 760 755 756 750 769 763 762 765 766 766 771 766 774 773 776 760 766 774 779 782
805 802 799 797 795 792 790 787 786 785 784 784 784 783 783 776 762 762 764 767 770 772 768 763 760 757 759 750 751 762 762 763 763 764 766 771 778 780 772 766 763 767 774 777 778
804 801 798 795 793 790 788 786 784 783 782 782 783 783 782 773 760 763 766 768 769 769 765 761 757 754 757 752 756 756 761 762 763 764 764 773 773 769 772 770 766 769 772 774 776
803 799 796 793 791 789 786 785 783 782 781 782 782 782 775 758 761 762 765 766 767 767 762 761 759 759 750 752 750 755 767 762 759 761 763 765 775 777 778 772 774 770 770 772 776
801 798 794 791 789 787 785 783 782 780 780 781 781 783 764 758 760 762 763 764 766 766 765 762 763 759 755 746 755 766 760 773 760 763 760 769 792 766 764 771 774 771 769 771 774
800 796 792 789 787 785 784 782 781 780 780 780 781 777 758 757 759 758 760 761 763 764 766 767 765 760 751 766 761 756 770 768 765 759 762 768 783 761 762 766 768 769 770 772 773
798 794 790 787 785 783 782 782 781 780 780 782 779 775 754 751 751 756 759 758 760 761 765 766 763 766 760 761 777 773 768 764 768 760 763 766 764 754 756 761 760 769 771 771 770
796 792 788 785 782 781 782 783 781 777 774 752 745 745 742 741 749 753 756 758 757 760 772 760 772 773 758 745 747 751 765 768 755 752 764 761 758 752 746 755 758 759 770 766 765
793 789 785 782 779 778 779 770 758 763 758 748 747 746 743 747 753 749 754 759 759 769 761 763 772 751 742 743 751 760 766 764 749 751 759 757 756 742 739 744 749 754 753 757 759
790 786 782 779 777 776 773 766 765 763 758 734 737 741 744 747 744 744 748 749 753 762 757 763 748 737 747 749 763 760 762 757 761 750 742 752 752 744 732 732 738 742 745 749 759
786 782 778 777 779 769 767 765 766 765 763 743 743 737 737 740 747 730 740 745 750 759 750 749 739 745 754 756 754 763 739 747 761 764 771 745 774 762 731 735 735 737 738 741 749
781 777 774 775 774 767 764 765 765 764 780 739 737 732 731 743 727 737 735 740 753 751 751 753 748 750 754 753 743 757 735 750 755 759 752 740 755 734 728 737 729 726 728 731 733
776 771 770 773 774 766 767 766 765 774 770 740 729 739 740 738 731 728 738 735 735 745 741 744 724 736 742 736 738 737 746 750 750 750 766 735 737 735 726 726 719 713 710 718 725
771 768 768 770 763 766 766 763 770 767 724 735 733 729 737 740 736 741 747 753 756 771 761 743 742 731 733 744 731 741 756 775 776 764 759 720 744 735 713 706 707 711 708 707 714
769 768 768 768 767 767 766 763 775 736 732 722 726 724 739 730 735 734 743 750 739 737 741 745 748 727 724 738 740 745 745 758 779 762 745 725 752 730 701 696 697 696 701 703 709
769 768 766 765 766 767 760 764 743 736 732 734 725 736 734 724 726 731 737 736 728 730 752 743 742 713 715 720 728 736 753 728 745 735 749 731 717 701 694 701 694 694 699 704 706
767 758 762 765 765 763 759 758 741 737 738 733 743 724 733 728 732 732 729 717 723 714 714 731 750 714 713 715 717 728 714 747 741 779 778 741 733 728 714 709 700 697 699 703 704
767 749 760 763 763 757 757 738 738 735 738 740 736 735 729 724 717 727 725 712 707 710 709 719 732 732 715 730 730 731 739 733 729 738 760 759 734 695 705 704 707 698 695 697 704
758 750 758 760 760 741 742 735 762 739 735 738 735 736 734 724 726 726 726 708 700 702 719 711 722 736 724 700 700 709 719 724 746 755 737 737 736 683 691 693 696 698 696 697 700
753 750 757 756 755 741 736 745 746 743 739 742 741 732 728 737 744 729 720 701 711 717 722 714 724 744 733 708 692 706 706 706 707 708 733 747 731 688 685 692 692 698 697 704 704
760 755 750 750 748 752 749 750 749 743 749 745 745 738 742 741 730 736 729 710 712 721 732 727 723 726 734 716 719 723 715 706 709 727 726 720 717 695 690 695 688 689 694 702 707
765 765 767 754 753 758 756 753 756 753 744 746 749 747 747 754 744 736 725 722 713 721 725 725 738 725 713 703 705 719 732 717 709 705 722 709 705 697 699 683 680 676 688 700 707
777 780 769 763 765 765 771 755 763 755 759 757 752 749 747 759 752 750 735 735 734 723 721 719 734 724 724 708 703 707 698 699 697 700 704 707 707 682 678 677 680 679 686 697 703
793 787 782 781 762 763 759 765 767 768 762 759 763 762 762 754 755 751 743 741 739 741 738 739 740 735 732 714 711 720 704 697 693 686 691 706 693 682 685 680 677 677 682 692 697
Wind_Speed
10 9 9 8 8 8 9 8 7 6 5 5 5 5 6 7 8 7 10 2 10 10 9 9 9 8 10 8 3 4 7 3 5 5 1 5 7 4 3 4 7 3 4 26 25
11 10 9 9 9 8 9 9 8 7 6 5 4 4 4 6 10 17 12 10 9 14 13 11 11 8 13 3 3 10 3 8 8 8 7 5 4 4 6 7 10 10 17 21 22
11 10 9 9 9 9 9 9 9 8 6 5 4 3 4 4 10 8 20 14 13 16 14 11 8 8 12 6 3 3 8 7 11 6 2 6 6 7 7 1 11 13 16 18 18
11 11 11 10 10 10 11 10 9 9 6 5 4 3 4 5 5 6 11 15 14 15 14 12 11 12 8 2 7 2 7 8 5 4 2 4 2 6 3 4 6 13 15 14 14
12 12 11 12 11 11 12 11 10 9 7 5 4 3 2 9 11 4 10 15 15 14 14 11 11 9 11 2 4 5 5 2 3 2 3 5 3 5 6 1 7 13 14 14 12
14 14 13 13 12 12 11 11 10 9 6 5 4 4 7 14 5 7 13 16 16 14 13 12 8 8 10 6 7 8 4 0 1 2 3 6 7 7 11 3 8 13 13 13 12
15 16 16 14 13 12 12 10 10 8 5 5 4 4 12 6 2 8 15 18 16 14 11 10 9 11 8 7 4 3 9 5 6 0 3 5 9 11 10 9 7 11 12 13 13
18 16 18 15 14 13 11 10 8 6 4 4 4 6 9 5 5 9 15 16 15 11 10 6 9 12 10 4 7 8 9 4 9 0 5 5 0 9 12 15 15 15 13 13 14
20 18 19 15 14 12 11 8 5 3 4 4 5 9 10 8 12 13 14 16 15 12 9 5 12 14 12 11 15 10 7 7 3 4 5 4 3 9 13 14 13 11 12 13 14
20 19 18 15 13 12 9 3 2 5 3 5 12 8 11 12 17 15 14 10 14 12 11 12 9 14 13 13 11 5 7 2 4 5 3 8 7 9 11 13 14 15 14 14 16
20 19 18 16 14 10 1 2 6 7 15 14 5 10 6 10 17 15 15 13 13 12 16 16 14 16 16 15 12 11 7 10 6 6 6 7 7 5 13 13 14 17 21 18 18
21 21 19 16 13 8 8 8 8 7 9 23 18 11 2 10 11 15 17 13 14 16 18 17 16 17 16 13 9 9 14 12 3 3 6 9 11 10 11 14 16 17 17 18 13
24 23 20 14 8 6 12 12 5 7 7 14 16 17 13 11 15 18 18 17 13 15 18 18 17 9 16 14 12 15 15 13 8 11 13 12 17 12 14 13 14 17 18 18 17
27 23 19 4 2 6 13 11 8 5 6 14 12 9 18 11 16 10 21 17 14 15 16 14 16 14 11 13 14 17 13 8 8 12 11 8 7 11 12 12 15 15 17 18 23
29 23 17 12 9 9 6 5 4 6 6 8 10 7 10 15 5 17 16 16 16 13 11 15 11 16 17 15 11 15 13 5 10 13 15 17 8 6 7 10 14 18 18 20 21
26 17 3 2 8 4 4 4 6 7 4 8 8 11 15 20 12 11 14 16 12 15 14 17 13 8 12 14 18 15 15 11 14 13 13 15 12 3 6 7 4 3 14 19 22
17 3 12 5 0 6 7 8 7 10 3 7 7 12 15 18 20 12 16 17 14 11 16 17 19 19 11 15 17 16 14 11 12 12 10 7 2 9 13 6 6 1 5 12 20
2 6 4 5 3 6 8 9 8 4 3 5 4 6 13 16 20 14 16 17 19 18 14 10 13 21 16 16 10 14 18 12 11 9 9 6 5 5 2 5 8 8 5 10 17
3 2 5 3 6 7 8 9 5 6 6 6 5 11 14 15 15 15 17 17 18 18 18 13 8 7 9 16 17 15 16 17 19 15 13 14 9 7 9 10 10 9 8 11 14
5 8 5 5 6 8 8 14 4 5 7 9 13 5 12 16 15 16 15 14 18 17 16 17 14 8 5 9 18 19 11 12 11 13 15 13 12 7 7 3 7 5 8 10 11
7 5 6 4 6 7 9 2 2 3 8 7 11 8 10 15 16 18 13 16 11 15 17 16 15 17 9 11 15 14 16 15 15 10 11 12 6 10 7 3 2 6 2 12 9
8 2 7 6 7 7 9 3 4 11 3 10 7 13 14 14 12 12 18 16 7 7 11 15 15 16 21 15 17 19 19 18 13 16 13 8 11 1 8 4 3 4 4 5 9
5 2 5 8 6 6 3 9 5 8 7 6 8 7 13 11 14 13 18 1 4 8 5 12 15 15 18 17 18 18 16 15 17 16 14 11 8 6 5 8 8 2 7 6 7
5 3 5 5 5 10 6 10 6 7 10 5 10 12 12 14 15 16 18 9 2 11 7 7 18 16 17 18 11 9 15 21 19 15 16 14 17 11 4 6 8 12 9 10 9
3 5 5 2 5 8 5 9 9 9 7 6 9 9 13 12 16 16 14 17 17 9 10 15 20 22 24 27 13 22 22 20 21 19 15 19 17 6 19 7 5 10 11 12 12
5 5 5 4 2 7 4 4 8 9 6 13 10 11 12 12 15 18 21 14 9 18 8 12 18 20 25 25 26 26 22 23 21 19 17 20 22 18 20 6 5 4 11 14 14
11 4 5 3 3 6 4 6 8 6 8 6 10 10 12 10 13 15 17 15 18 19 17 15 16 19 23 22 25 26 24 23 22 21 19 21 20 13 20 17 9 9 12 15 16
Wind_Direction
1 356 354 351 347 343 343 337 334 311 296 288 289 293 295 292 287 255 241 191 199 191 176 199 219 227 241 247 207 228 330 25 83 125 200 197 218 335 335 166 46 65 27 127 155
4 358 354 346 342 338 337 332 332 317 290 284 291 300 302 292 280 255 232 233 220 195 202 199 207 217 252 224 170 268 283 32 21 132 217 130 275 184 272 171 115 99 100 127 153
358 353 349 343 336 332 330 327 326 321 294 277 279 290 305 293 270 244 212 222 206 196 220 228 288 256 275 249 84 339 15 7 38 22 237 190 173 192 237 145 140 133 133 146 157
356 349 342 337 333 329 324 321 317 320 297 272 266 283 294 254 244 81 181 203 185 190 230 230 245 248 274 278 64 237 55 11 33 93 98 163 140 200 254 212 80 133 146 154 168
350 343 336 330 327 324 319 313 310 313 297 258 250 267 261 220 257 134 170 172 171 196 223 222 246 258 279 10 250 32 79 17 44 117 175 119 254 354 151 247 142 139 154 164 175
348 345 335 328 323 320 317 309 305 305 285 247 237 256 245 247 104 155 165 175 188 207 222 235 264 353 285 334 315 25 19 225 188 124 182 209 251 237 153 161 167 155 165 171 168
345 344 337 328 323 318 316 309 304 300 270 240 238 249 258 284 191 182 185 191 196 211 229 234 276 273 332 246 75 117 260 202 188 289 315 248 215 222 172 167 203 177 175 164 168
345 337 336 328 321 317 317 311 303 290 249 228 234 250 277 147 185 178 183 191 204 212 251 301 252 272 278 26 234 235 241 247 120 268 134 248 172 206 163 183 189 208 181 173 173
340 334 334 327 319 313 313 309 303 282 216 205 227 231 246 156 189 179 183 189 198 205 216 269 250 250 242 251 237 180 264 42 141 158 289 225 147 180 172 198 208 206 200 189 181
337 332 329 324 314 311 313 241 133 111 163 236 264 261 224 208 189 178 192 205 194 203 215 224 229 240 233 248 254 173 303 209 333 111 213 272 244 178 181 212 210 191 198 194 197
339 334 328 323 311 306 168 202 210 198 209 225 204 241 128 191 161 184 184 200 206 221 221 202 229 237 239 233 278 329 294 280 274 87 278 260 265 251 179 204 218 185 193 208 201
340 334 325 320 305 287 208 243 5 346 281 220 246 248 292 173 186 194 185 206 206 225 219 237 227 251 251 263 301 272 264 257 212 186 255 270 274 242 203 205 210 207 212 195 207
339 332 324 322 296 228 225 231 291 320 258 208 209 219 202 219 227 194 192 211 224 230 228 233 232 215 251 256 246 251 261 271 312 312 268 245 256 229 207 203 202 211 210 209 194
337 328 319 303 265 214 224 234 237 295 268 160 195 219 204 207 233 221 190 221 235 247 234 234 251 252 247 262 248 259 236 255 294 274 287 238 288 195 204 188 202 211 212 211 189
334 323 309 205 309 226 76 170 222 242 269 151 131 105 187 203 126 195 184 213 242 226 252 238 232 246 252 242 241 257 272 292 284 278 267 254 227 125 202 196 202 199 206 212 206
332 316 304 181 228 256 202 211 225 232 247 149 143 188 200 205 204 142 193 225 238 253 251 258 279 272 270 262 238 256 274 237 251 254 262 251 239 258 190 202 136 182 197 197 205
330 310 174 191 230 192 200 214 226 249 84 151 199 177 201 195 220 178 196 204 221 222 232 226 236 230 228 253 225 215 225 232 230 226 252 114 300 299 297 258 265 319 230 197 194
23 102 157 233 230 194 210 222 257 20 306 56 266 190 201 186 213 198 200 218 222 247 282 248 235 202 204 237 212 219 229 246 252 276 312 149 250 251 329 223 213 207 230 179 193
157 165 200 157 199 205 228 225 293 21 11 296 225 244 201 200 224 203 220 222 229 215 257 293 214 99 238 207 248 203 219 255 281 281 269 269 252 307 242 211 235 212 153 188 195
257 187 88 147 178 223 242 260 344 311 310 264 270 212 237 202 215 244 217 222 238 232 221 257 269 254 193 224 220 241 251 229 229 259 261 257 263 234 154 305 6 309 165 185 188
252 214 125 182 203 226 247 264 23 172 311 288 281 285 270 285 215 224 231 244 211 247 220 241 254 271 169 217 248 203 245 252 278 297 301 283 301 76 148 181 291 329 151 163 186
285 257 143 195 227 226 264 343 18 274 238 272 272 276 288 293 274 261 263 253 21 253 250 235 253 244 248 231 206 239 215 224 238 236 248 284 286 71 168 205 34 330 139 125 174
303 28 170 231 269 221 164 271 281 288 268 294 278 288 297 282 280 268 275 285 52 282 294 272 238 255 261 261 228 216 233 249 246 243 271 283 291 64 152 192 201 251 152 157 185
286 233 150 224 294 293 323 272 271 166 282 278 288 301 275 269 266 266 278 285 124 285 25 299 268 256 259 264 47 295 262 247 241 243 252 242 259 292 179 238 219 157 169 163 177
342 48 4 333 98 327 308 299 285 278 189 294 280 253 282 296 288 274 254 267 256 208 244 253 254 266 270 275 252 199 229 265 251 254 271 275 278 328 307 287 261 165 166 168 172
351 338 339 310 276 277 189 293 304 306 319 288 277 291 326 288 289 295 299 303 300 283 238 273 270 265 270 272 269 272 262 251 253 260 250 263 279 276 288 266 273 244 159 180 176
5 349 287 132 285 273 23 349 323 336 281 294 312 300 285 320 335 310 307 297 286 284 285 286 282 281 265 262 264 257 257 267 267 265 259 262 246 254 277 271 236 229 172 189 179